Weather History for Wheeling, WV

Change the Weather History Date:

Thursday, February 7, 2013

  Actual Average Record
Temperature  
Mean Temperature 32 °F 31 °F  
Max Temperature 43 °F 38 °F 58 °F (2005)
Min Temperature 20 °F 23 °F 4 °F (1951)
Degree Days  
Heating Degree Days 33 34  
Month to date heating degree days 291 244  
Since 1 July heating degree days 3322 3486  
Cooling Degree Days 0    
Month to date cooling degree days 0  
Year to date cooling degree days 0  
Moisture  
Dew Point 22 °F    
Average Humidity 63    
Maximum Humidity 77    
Minimum Humidity 49    
Precipitation  
Precipitation 0.00 in 0.08 in 0.39 in (1999)
Month to date precipitation 0.30 0.53  
Sea Level Pressure  
Sea Level Pressure 30.18 in    
Wind  
Wind Speed 9 mph (East)    
Max Wind Speed 15 mph    
Max Gust Speed 17 mph    
Visibility 10 miles    
Events      
T = Trace of Precipitation, MM = Missing Value Source: NWS Daily Summary

Daily Weather History Graph

Daily Weather History Graph

Search for Another Location

Airport:

Trip Planner

Search our weather history database for the weather conditions in past years. The results will help you decide how hot, cold, wet, or windy it might be!

Date:

Astronomy

Feb. 07, 2013 Rise Set
Actual Time 7:25 AM EST 5:49 PM EST
Civil Twilight 6:56 AM EST 6:17 PM EST
Nautical Twilight 6:24 AM EST 6:49 PM EST
Astronomical Twilight 5:52 AM EST 7:21 PM EST
Moon 5:03 AM EST (2/7) 3:11 PM EST (2/7)
Length of Visible Light 11h 20m
Length of Day
10h 24m
Waning Crescent, 9% of the Moon is Illuminated
Feb 7
Waning Crescent
Feb 10
New
Feb 17
First Quarter
Feb 25
Full
Mar 4
Last Quarter

Hourly Weather History & Observations

Time (EST) Temp. Windchill Dew Point Humidity Pressure Visibility Wind Dir Wind Speed Gust Speed Precip Events Conditions
12:53 AM 23.0 °F 13.9 °F 16.0 °F 74% 30.32 in 10.0 mi East 8.1 mph - N/A   Clear
1:53 AM 21.0 °F 10.6 °F 15.1 °F 78% 30.30 in 10.0 mi ESE 9.2 mph - N/A   Clear
2:53 AM 24.1 °F 13.7 °F 16.0 °F 71% 30.27 in 10.0 mi East 10.4 mph - N/A   Clear
3:53 AM 21.9 °F 14.5 °F 16.0 °F 78% 30.27 in 10.0 mi ENE 5.8 mph - N/A   Clear
4:53 AM 21.0 °F 16.2 °F 15.1 °F 78% 30.30 in 10.0 mi NE 3.5 mph - N/A   Clear
5:53 AM 21.9 °F 14.5 °F 16.0 °F 78% 30.31 in 8.0 mi NE 5.8 mph - N/A   Clear
6:53 AM 24.1 °F 15.2 °F 17.1 °F 75% 30.30 in 9.0 mi East 8.1 mph - N/A   Overcast
7:53 AM 24.1 °F 16.0 °F 18.0 °F 77% 30.29 in 7.0 mi East 6.9 mph - N/A   Overcast
8:53 AM 26.1 °F 17.6 °F 19.0 °F 75% 30.29 in 7.0 mi East 8.1 mph - N/A   Overcast
9:53 AM 28.0 °F 20.8 °F 21.0 °F 75% 30.26 in 8.0 mi East 6.9 mph - N/A   Scattered Clouds
10:53 AM 30.9 °F 24.3 °F 21.9 °F 69% 30.25 in 9.0 mi ESE 6.9 mph - N/A   Partly Cloudy
11:53 AM 34.0 °F 28.0 °F 24.1 °F 67% 30.23 in 10.0 mi East 6.9 mph - N/A   Overcast
12:53 PM 37.0 °F 30.4 °F 24.1 °F 59% 30.18 in 10.0 mi East 9.2 mph - N/A   Scattered Clouds
1:53 PM 39.0 °F 32.3 °F 25.0 °F 57% 30.14 in 10.0 mi ENE 10.4 mph - N/A   Scattered Clouds
2:53 PM 41.0 °F 34.7 °F 25.0 °F 53% 30.11 in 10.0 mi ESE 10.4 mph - N/A   Clear
3:53 PM 43.0 °F 36.8 °F 25.0 °F 49% 30.09 in 10.0 mi East 11.5 mph - N/A   Partly Cloudy
4:53 PM 43.0 °F 37.7 °F 26.1 °F 51% 30.09 in 10.0 mi East 9.2 mph - N/A   Overcast
5:53 PM 41.0 °F 35.2 °F 26.1 °F 55% 30.07 in 10.0 mi East 9.2 mph - N/A   Mostly Cloudy
6:53 PM 39.0 °F 31.4 °F 26.1 °F 60% 30.05 in 10.0 mi ESE 12.7 mph - N/A   Partly Cloudy
7:53 PM 39.0 °F 32.3 °F 27.0 °F 62% 30.03 in 10.0 mi East 10.4 mph - N/A   Clear
8:53 PM 37.0 °F 29.8 °F 28.0 °F 70% 30.01 in 10.0 mi ESE 10.4 mph - N/A   Clear
9:53 PM 37.0 °F 29.8 °F 28.0 °F 70% 30.00 in 10.0 mi SE 10.4 mph - N/A   Clear
10:53 PM 36.0 °F 28.5 °F 28.0 °F 73% 29.98 in 10.0 mi ESE 10.4 mph - N/A   Clear